[[{"header":{"parameterUnit":"m.s-1","parameterCategory":1,"la1":30.2991,"la2":30.254,"lo1":-89.0895,"lo2":-89.0444,"dy":0.0017,"dx":0.0017,"nx":28,"ny":28,"refTime":"2024-02-02T03:00:00:Z","depth":0,"parameterNumber":2,"parameterNumberName":"U-component_of_WINDS"},"data":[0,0,0,0,0,0,0,0,0,0,0,0,0,0,0,0,0,0,0,0,0,0,0,0,0,0,0,0,0,0,0,0,0,0,0,0,0,0,0,0,0,0,0,0,0,0,0,0,0,0,0,0,0,0,0,0,0,0,-9.462,-9.4619,0,-9.4586,-9.4585,-9.4585,-9.4395,-9.4391,-9.4386,-9.4382,-9.4349,-9.4352,-9.4356,0,0,0,0,0,0,0,0,0,0,0,0,0,-9.4523,-9.4526,-9.462,-9.4619,-9.4619,-9.4586,-9.4585,-9.4585,-9.4396,-9.4391,-9.4385,-9.438,-9.4348,-9.4352,-9.4356,0,0,0,0,0,0,0,0,0,0,0,0,0,-9.4535,-9.4527,-9.462,-9.4521,-9.4511,-9.4586,-9.4585,-9.4585,-9.4397,-9.4391,-9.4384,-9.4377,-9.4347,-9.4352,-9.4357,-9.4524,0,0,-9.4372,-9.4374,0,0,0,0,0,0,0,0,-9.4534,-9.4539,-9.4536,-9.4528,-9.4517,-9.4488,-9.4539,-9.4565,-9.4399,-9.4441,-9.4382,-9.4374,-9.4401,-9.4401,-9.441,-9.4523,-9.4521,-9.4372,-9.4376,-9.4378,-9.4379,0,0,0,0,0,0,0,-9.4534,-9.4539,-9.4606,-9.4536,-9.4525,-9.4479,-9.4473,-9.4543,-9.446,-9.4437,-9.4423,-9.4421,-9.4395,-9.4405,-9.4408,-9.4521,-9.4372,-9.4377,-9.438,-9.4382,-9.4769,-9.4776,0,0,0,0,0,0,-9.4547,-9.454,-9.4607,-9.4605,-9.4509,-9.4486,-9.4479,-9.4504,-9.4458,-9.4445,-9.4427,-9.4413,-9.44,-9.4402,-9.4406,-9.4597,-9.4378,-9.4382,-9.4385,-9.4762,-9.4771,-9.4778,0,0,0,0,0,0,-9.4545,-9.4555,-9.4609,-9.4569,-9.4572,-9.4495,-9.4524,-9.4507,-9.4517,-9.4451,-9.4435,-9.4453,-9.4395,-9.4399,-9.4496,-9.4594,-9.4385,-9.4389,-9.4753,-9.4764,-9.4774,-9.4984,0,0,0,0,0,0,-9.4543,-9.4555,-9.4618,-9.4571,-9.4575,-9.47,-9.453,-9.4511,-9.4526,-9.4507,-9.4471,-9.4459,-9.439,-9.4489,-9.4501,-9.4597,-9.4393,-9.4744,-9.4758,-9.4771,-9.4968,-9.5,-9.5028,0,0,0,0,0,-9.4541,-9.4678,-9.4622,-9.4631,-9.4651,-9.4705,-9.4707,-9.4624,-9.4535,-9.4597,-9.4555,-9.446,-9.4582,-9.4501,-9.4512,-9.4611,-9.4737,-9.4754,-9.477,-9.4954,-9.4994,-9.5028,0,0,0,0,0,0,-9.4738,-9.467,-9.4607,-9.4734,-9.4727,-9.4673,-9.4749,-9.467,-9.4688,-9.4669,-9.4566,-9.456,-9.4672,-9.4652,-9.4563,-9.4771,-9.4643,-9.4663,-9.4779,-9.4817,-9.4847,-9.4848,-9.4397,0,0,0,0,0,-9.4797,-9.4846,-9.4784,-9.4902,-9.4902,-9.4827,-9.4848,-9.4784,-9.4773,-9.4769,-9.4733,-9.4727,-9.4763,-9.4789,-9.4819,-9.4965,-9.4954,-9.5039,-9.5069,-9.5094,-9.5112,-9.5186,-9.5222,-9.4832,-9.4832,-9.4832,0,0,-9.4918,-9.4887,-9.4924,-9.4941,-9.4928,-9.4982,-9.4826,-9.4889,-9.4927,-9.4779,-9.4867,-9.4842,-9.4828,-9.495,-9.5002,-9.4936,-9.5218,-9.5115,-9.5136,-9.5139,-9.5206,-9.5244,-9.5276,-9.4843,-9.4841,-9.4839,0,0,-9.5165,-9.5148,-9.5243,-9.5233,-9.5215,-9.5165,-9.5188,-9.5147,-9.5124,-9.5212,-9.5101,-9.5147,-9.5212,-9.5206,-9.5211,-9.5459,-9.5371,-9.5472,-9.5629,-9.5703,-9.5734,-9.576,-9.5846,-9.5879,-9.5489,-9.549,-9.549,0,-9.5317,-9.5392,-9.5302,-9.5372,-9.5383,-9.5251,-9.5347,-9.5343,-9.5337,-9.5347,-9.5274,-9.5353,-9.5334,-9.5452,-9.5513,-9.5523,-9.5546,-9.5473,-9.5736,-9.5762,-9.5786,-9.5867,-9.59,-9.5502,-9.5501,-9.5499,-9.5498,0,-9.558,-9.5634,-9.5714,-9.571,-9.573,-9.5813,-9.5736,-9.5767,-9.5704,-9.5661,-9.5752,-9.5726,-9.5747,-9.5771,-9.571,-9.5881,-9.5841,-9.5755,-9.5623,-9.5837,-9.5911,-9.5941,-9.5519,-9.5515,-9.5511,-9.5508,0,0,-9.5948,-9.5894,-9.5924,-9.5921,-9.5893,-9.5933,-9.6011,-9.6031,-9.606,-9.6061,-9.6123,-9.6182,-9.6102,-9.6108,-9.6045,-9.6111,-9.6306,-9.6015,-9.6013,-9.6068,-9.6492,-9.6555,-9.6593,-9.625,-9.6256,-9.626,-9.6492,0,-9.6182,-9.631,-9.6232,-9.6372,-9.642,-9.6297,-9.6365,-9.6355,-9.6319,-9.6355,-9.6314,-9.6357,-9.6248,-9.6251,-9.6311,-9.627,-9.6389,-9.6253,-9.6306,-9.6309,-9.631,-9.6632,-9.6699,-9.6919,-9.6521,-9.6526,-9.6529,0,-9.6472,-9.6485,-9.663,-9.6591,-9.6609,-9.6671,-9.6683,-9.672,-9.6708,-9.6676,-9.6685,-9.6606,-9.668,-9.6554,-9.6654,-9.6563,-9.6581,-9.6564,-9.6571,-9.657,-9.643,-9.6637,-9.6987,-9.7019,-9.6575,-9.6571,-9.6568,0,-9.6723,-9.6777,-9.687,-9.6871,-9.683,-9.6876,-9.6861,-9.6841,-9.6859,-9.6871,-9.6881,-9.6903,-9.6914,-9.6933,-9.6862,-9.6777,-9.6972,-9.684,-9.6947,-9.6949,-9.699,-9.6988,-9.7346,-9.7008,-9.7008,-9.7007,-9.7006,0,-9.6991,-9.7084,-9.6982,-9.7039,-9.7139,-9.705,-9.7152,-9.7124,-9.7108,-9.7158,-9.7055,-9.7104,-9.7008,-9.7049,-9.6994,-9.7085,-9.7092,-9.7068,-9.7052,-9.7075,-9.7078,-9.7083,-9.7065,-9.7016,-9.7014,-9.7012,-9.701,0,-9.7287,-9.7222,-9.7315,-9.7269,-9.7259,-9.7335,-9.7295,-9.7347,-9.7304,-9.7368,-9.7378,-9.7311,-9.7353,-9.7285,-9.7319,-9.7282,-9.7408,-9.737,-9.7411,-9.7399,-9.7509,-9.7499,-9.7879,-9.7924,-9.7561,-9.7565,-9.7568,0,-9.746,-9.7529,-9.749,-9.7515,-9.7506,-9.7549,-9.7566,-9.7482,-9.7504,-9.7495,-9.7548,-9.7581,-9.7602,-9.7675,-9.7629,-9.7655,-9.7615,-9.7747,-9.7618,-9.7639,-9.7614,-9.7609,-9.7615,-9.7772,-9.7777,-9.778,-9.7783,0,-9.7775,-9.774,-9.7768,-9.7786,-9.7809,-9.782,-9.7823,-9.785,-9.7761,-9.7791,-9.7832,-9.7849,-9.7884,-9.7918,-9.7932,-9.7917,-9.7836,-9.7825,-9.785,-9.7873,-9.7893,-9.7881,-9.748,-9.7815,-9.7812,-9.781,-9.7808,-9.7807,-9.8012,-9.8067,-9.8048,-9.8083,-9.8076,-9.8082,-9.8127,-9.809,-9.8122,-9.8142,-9.8092,-9.8145,-9.8131,-9.8142,-9.8137,-9.8177,-9.8119,-9.8157,-9.8166,-9.8176,-9.8192,-9.789,-9.818,-9.8179,-9.8178,-9.8178,-9.8177,0,-9.8319,-9.8301,-9.8334,-9.8341,-9.8369,-9.8291,-9.829,-9.8319,-9.8366,-9.836,-9.8384,-9.8431,-9.8464,-9.8422,-9.8447,-9.8488,-9.8451,-9.8497,-9.8492,-9.8489,-9.8244,-9.8218,-9.8527,-9.8526,-9.8526,-9.8526,-9.8526,-9.8526,-9.8481,-9.8569,-9.8532,-9.8616,-9.8597,-9.8647,-9.8653,-9.8658,-9.8652,-9.8709,-9.8736,-9.8708,-9.8688,-9.8711,-9.8738,-9.8725,-9.8738,-9.8797,-9.8771,-9.8541,-9.8507,-9.8474,-9.8449,-9.8801,-9.8802,-9.9012,-9.9014,-9.9016]},{"header":{"parameterUnit":"m.s-1","parameterCategory":1,"la1":30.2991,"la2":30.254,"lo1":-89.0895,"lo2":-89.0444,"dy":0.0017,"dx":0.0017,"nx":28,"ny":28,"refTime":"2024-02-02T03:00:00:Z","depth":0,"parameterNumber":3,"parameterNumberName":"V-component_of_WINDS"},"data":[0,0,0,0,0,0,0,0,0,0,0,0,0,0,0,0,0,0,0,0,0,0,0,0,0,0,0,0,0,0,0,0,0,0,0,0,0,0,0,0,0,0,0,0,0,0,0,0,0,0,0,0,0,0,0,0,0,0,0.6044,0.6044,0,0.6051,0.6051,0.6051,0.6069,0.6069,0.607,0.607,0.6074,0.6073,0.6073,0,0,0,0,0,0,0,0,0,0,0,0,0,0.6045,0.6045,0.6044,0.6044,0.6044,0.6051,0.6051,0.6051,0.6069,0.6069,0.607,0.607,0.6074,0.6073,0.6073,0,0,0,0,0,0,0,0,0,0,0,0,0,0.6047,0.6045,0.6044,0.6054,0.6055,0.6051,0.6051,0.6051,0.6069,0.6069,0.607,0.6071,0.6074,0.6073,0.6073,0.6059,0,0,0.6072,0.6072,0,0,0,0,0,0,0,0,0.6047,0.6047,0.6052,0.6053,0.6054,0.606,0.6053,0.6054,0.6069,0.6063,0.607,0.6071,0.6068,0.6068,0.6068,0.6059,0.6059,0.6072,0.6072,0.6071,0.6071,0,0,0,0,0,0,0,0.6047,0.6047,0.6047,0.6052,0.6054,0.6058,0.6059,0.6053,0.6062,0.6064,0.6065,0.6066,0.6069,0.6069,0.6069,0.6059,0.6072,0.6071,0.6071,0.6071,0.6042,0.6042,0,0,0,0,0,0,0.6046,0.6047,0.6046,0.6047,0.6052,0.6057,0.6058,0.6057,0.6063,0.6064,0.6066,0.6067,0.6069,0.6069,0.6069,0.6055,0.6071,0.6071,0.6071,0.6043,0.6042,0.6041,0,0,0,0,0,0,0.6046,0.6045,0.6046,0.6047,0.6048,0.6057,0.6055,0.6057,0.6057,0.6064,0.6065,0.6064,0.607,0.6069,0.6062,0.6055,0.6071,0.607,0.6043,0.6042,0.6042,0.6025,0,0,0,0,0,0,0.6046,0.6045,0.604,0.6047,0.6048,0.604,0.6055,0.6057,0.6057,0.6058,0.6062,0.6064,0.607,0.6063,0.6062,0.6055,0.607,0.6044,0.6043,0.6042,0.6026,0.6024,0.6021,0,0,0,0,0,0.6046,0.6033,0.604,0.6039,0.6041,0.6039,0.6039,0.6048,0.6056,0.6051,0.6056,0.6063,0.6056,0.6062,0.6061,0.6053,0.6044,0.6043,0.6042,0.6027,0.6024,0.6021,0,0,0,0,0,0,0.6023,0.6034,0.6041,0.6031,0.6034,0.6042,0.6036,0.6044,0.6044,0.6045,0.6055,0.6056,0.6048,0.605,0.6056,0.6042,0.6052,0.605,0.6041,0.6038,0.6035,0.6035,0.607,0,0,0,0,0,0.6017,0.6015,0.6025,0.6015,0.6017,0.6026,0.6025,0.6032,0.6035,0.6036,0.604,0.6042,0.6041,0.6039,0.6038,0.6027,0.6029,0.6022,0.6019,0.6017,0.6016,0.6013,0.601,0.6038,0.6038,0.6038,0,0,0.6004,0.601,0.6008,0.6011,0.6014,0.6012,0.6027,0.6023,0.6022,0.6035,0.603,0.6033,0.6036,0.6028,0.6024,0.6029,0.6009,0.6016,0.6014,0.6014,0.6011,0.6008,0.6006,0.6037,0.6037,0.6037,0,0,0.598,0.5984,0.5978,0.5982,0.5987,0.5994,0.5993,0.6,0.6004,0.5999,0.601,0.6009,0.6005,0.6008,0.6008,0.599,0.5997,0.5989,0.5976,0.5973,0.5971,0.5969,0.5964,0.5962,0.5988,0.5987,0.5987,0,0.5963,0.5961,0.5973,0.597,0.5971,0.5986,0.598,0.5983,0.5987,0.5988,0.5994,0.5993,0.5995,0.5989,0.5985,0.5985,0.5984,0.5988,0.5971,0.5969,0.5967,0.5962,0.596,0.5987,0.5987,0.5987,0.5987,0,0.5941,0.5939,0.5934,0.594,0.5941,0.5936,0.5948,0.5948,0.5955,0.5962,0.5958,0.5963,0.5964,0.5963,0.5969,0.5958,0.5962,0.5969,0.5979,0.5963,0.5959,0.5957,0.5985,0.5985,0.5986,0.5986,0,0,0.59,0.5916,0.5914,0.5919,0.5928,0.5927,0.5924,0.5927,0.5927,0.593,0.5929,0.5927,0.5936,0.5936,0.5944,0.5941,0.5928,0.5949,0.5949,0.5946,0.5918,0.5913,0.5911,0.5934,0.5933,0.5933,0.5919,0,0.5879,0.5875,0.5887,0.5881,0.5881,0.5897,0.5894,0.59,0.5907,0.5907,0.5914,0.5914,0.5924,0.5925,0.5923,0.593,0.5923,0.5931,0.5932,0.5932,0.5931,0.5908,0.5902,0.5888,0.5917,0.5916,0.5916,0,0.5852,0.5857,0.5851,0.5864,0.5864,0.5862,0.5868,0.5868,0.5876,0.5881,0.5884,0.5894,0.5892,0.5903,0.5901,0.5907,0.5908,0.5912,0.5912,0.5912,0.5923,0.5908,0.5883,0.5881,0.5913,0.5914,0.5914,0,0.5825,0.583,0.5828,0.5831,0.5845,0.5844,0.585,0.5858,0.586,0.5865,0.5867,0.587,0.5872,0.5875,0.5886,0.5892,0.5884,0.5894,0.5888,0.5888,0.5885,0.5885,0.5861,0.5886,0.5886,0.5886,0.5886,0,0.58,0.5796,0.5817,0.5815,0.5812,0.5827,0.5823,0.583,0.5838,0.5838,0.5852,0.5852,0.5866,0.5868,0.5876,0.5874,0.5875,0.5879,0.5882,0.5878,0.5878,0.5879,0.588,0.5885,0.5885,0.5885,0.5885,0,0.5768,0.5782,0.5781,0.5796,0.58,0.5797,0.581,0.5809,0.5818,0.5819,0.582,0.5834,0.5837,0.5848,0.5853,0.5859,0.5856,0.5859,0.5853,0.5855,0.5849,0.585,0.5824,0.5822,0.5848,0.5848,0.5847,0,0.5751,0.5749,0.5765,0.5768,0.5774,0.5777,0.578,0.5795,0.5798,0.5808,0.5807,0.5812,0.5817,0.5821,0.5831,0.5836,0.5841,0.5832,0.5841,0.5839,0.5842,0.5842,0.5843,0.5829,0.5829,0.5829,0.5828,0,0.5721,0.5729,0.5733,0.5742,0.5746,0.5753,0.576,0.5761,0.5778,0.5781,0.5786,0.5789,0.5797,0.5802,0.5809,0.5815,0.5824,0.5826,0.5825,0.5821,0.5818,0.5821,0.5848,0.5826,0.5826,0.5826,0.5826,0.5826,0.5697,0.5697,0.5709,0.5715,0.5723,0.573,0.5732,0.5742,0.5747,0.5755,0.5764,0.5768,0.5778,0.5789,0.5794,0.5798,0.5803,0.5801,0.5801,0.58,0.58,0.5818,0.5799,0.5799,0.5799,0.5799,0.5799,0,0.5668,0.5677,0.5683,0.5694,0.5699,0.5711,0.572,0.5724,0.5728,0.5737,0.5742,0.5749,0.5755,0.5767,0.5774,0.5775,0.5779,0.5776,0.5776,0.5778,0.5794,0.5795,0.5772,0.5772,0.5772,0.5772,0.5772,0.5772,0.5653,0.5655,0.5665,0.5671,0.568,0.5686,0.5691,0.5698,0.5706,0.5713,0.5719,0.5728,0.5738,0.5747,0.5753,0.5756,0.5759,0.5754,0.5759,0.5773,0.5776,0.5778,0.5779,0.5754,0.5754,0.5742,0.5742,0.5742]}]]